User: anonymous   Login
Location: Unspecified
(0.0000°N, 0.0000°E)
Time: 14:38:43
(UTC+01:00)
Language:

YAOGAN 3 - Orbit

View from above orbital plane
View from above orbital plane
View from above satellite
View from above satellite

Ground track
Ground track

The orbit data is extracted from the following two-line orbital elements,

1 32289U 07055A   18018.78970425  .00000372  00000-0  55011-4 0  9999
2 32289  98.0038  25.2822 0001515  76.3884 283.7491 14.80872720550646
Epoch (UTC): 18 January 2018 18:57:10
Eccentricity: 0.0001515
inclination: 98.0038°
perigee height: 625 km
apogee height: 627 km
right ascension of ascending node: 25.2822°
argument of perigee: 76.3884°
revolutions per day: 14.80872720
mean anomaly at epoch: 283.7491°
orbit number at epoch: 55064

The dashed part of the orbit path shows where the satellite is in the earth's shadow,  

DLR